Weather History for KBOS - November, 2013

Change the Weather History Date:

Wednesday, November 6, 2013

  Actual Average Record
Temperature  
Mean Temperature 52 °F 48 °F  
Max Temperature 61 °F 55 °F 73 °F (1938)
Min Temperature 42 °F 41 °F 21 °F (1879)
Degree Days  
Heating Degree Days 13 17  
Month to date heating degree days 94 100  
Since 1 July heating degree days 446 547  
Cooling Degree Days 0 0  
Month to date cooling degree days 1 0  
Year to date cooling degree days 920 747  
Growing Degree Days 2 (Base 50)    
Moisture  
Dew Point 41 °F    
Average Humidity 68    
Maximum Humidity 89    
Minimum Humidity 46    
Precipitation  
Precipitation 0.00 in 0.13 in 1.58 in (1966)
Month to date precipitation 0.06 0.77  
Year to date precipitation 33.08 36.77  
Sea Level Pressure  
Sea Level Pressure 30.31 in    
Wind  
Wind Speed 11 mph (SSW)    
Max Wind Speed 18 mph    
Max Gust Speed 24 mph    
Visibility 10 miles    
Events      
T = Trace of Precipitation, MM = Missing Value Source: NWS Daily Summary

Daily Weather History Graph

Daily Weather History Graph

Search for Another Location

Airport or City:

Trip Planner

Search our weather history database for the weather conditions in past years. The results will help you decide how hot, cold, wet, or windy it might be!

Date:

Astronomy

Nov. 06, 2013 Rise Set
Actual Time 6:23 AM EST 4:30 PM EST
Civil Twilight 5:54 AM EST 5:00 PM EST
Nautical Twilight 5:20 AM EST 5:33 PM EST
Astronomical Twilight 4:47 AM EST 6:06 PM EST
Moon 9:37 AM EST (11/6) 7:30 PM EST (11/6)
Length of Visible Light 11h 06m
Length of Day
10h 07m
Waxing Crescent, 13% of the Moon is Illuminated
Nov 6
Waxing Crescent
Nov 10
First Quarter
Nov 17
Full
Nov 25
Last Quarter
Dec 2
New

Hourly Weather History & Observations

Time (EST) Temp. Windchill Dew Point Humidity Pressure Visibility Wind Dir Wind Speed Gust Speed Precip Events Conditions
12:54 AM 43.0 °F 39.5 °F 33.1 °F 68% 30.52 in 10.0 mi SSW 5.8 mph - N/A   Scattered Clouds
1:54 AM 44.1 °F 40.1 °F 35.1 °F 71% 30.50 in 10.0 mi South 6.9 mph - N/A   Scattered Clouds
2:54 AM 44.1 °F - 35.1 °F 71% 30.49 in 10.0 mi Calm Calm - N/A   Scattered Clouds
3:54 AM 44.1 °F 41.5 °F 35.1 °F 71% 30.48 in 10.0 mi SSW 4.6 mph - N/A   Scattered Clouds
4:54 AM 44.1 °F 40.8 °F 36.0 °F 73% 30.46 in 10.0 mi SSW 5.8 mph - N/A   Mostly Cloudy
5:54 AM 45.0 °F 41.2 °F 37.0 °F 74% 30.46 in 10.0 mi SSW 6.9 mph - N/A   Mostly Cloudy
6:54 AM 45.0 °F 41.8 °F 37.0 °F 74% 30.45 in 10.0 mi SSW 5.8 mph - N/A   Mostly Cloudy
7:54 AM 46.9 °F - 39.0 °F 74% 30.44 in 10.0 mi SSW 8.1 mph - N/A   Mostly Cloudy
8:54 AM 52.0 °F - 39.9 °F 63% 30.41 in 10.0 mi SSW 10.4 mph - N/A   Scattered Clouds
9:54 AM 54.0 °F - 39.9 °F 59% 30.39 in 10.0 mi South 13.8 mph - N/A   Mostly Cloudy
10:54 AM 57.0 °F - 39.9 °F 53% 30.36 in 10.0 mi SSW 13.8 mph - N/A   Mostly Cloudy
11:54 AM 57.9 °F - 39.9 °F 51% 30.31 in 10.0 mi SSW 16.1 mph - N/A   Scattered Clouds
12:54 PM 60.1 °F - 39.0 °F 46% 30.27 in 10.0 mi SW 17.3 mph 24.2 mph N/A   Scattered Clouds
1:54 PM 60.1 °F - 41.0 °F 49% 30.25 in 10.0 mi South 13.8 mph - N/A   Scattered Clouds
2:54 PM 60.1 °F - 41.0 °F 49% 30.22 in 10.0 mi SSW 15.0 mph - N/A   Scattered Clouds
3:54 PM 57.9 °F - 42.1 °F 56% 30.22 in 10.0 mi SSW 15.0 mph - N/A   Scattered Clouds
4:54 PM 55.0 °F - 45.0 °F 69% 30.21 in 10.0 mi SSW 13.8 mph - N/A   Scattered Clouds
5:54 PM 54.0 °F - 44.1 °F 69% 30.20 in 10.0 mi SSW 11.5 mph - N/A   Mostly Cloudy
6:54 PM 54.0 °F - 46.0 °F 75% 30.18 in 10.0 mi SSW 11.5 mph - N/A   Mostly Cloudy
7:54 PM 54.0 °F - 46.9 °F 77% 30.15 in 10.0 mi SSW 12.7 mph - N/A   Mostly Cloudy
8:54 PM 54.0 °F - 48.0 °F 80% 30.13 in 10.0 mi South 12.7 mph - N/A   Scattered Clouds
9:54 PM 54.0 °F - 50.0 °F 86% 30.11 in 10.0 mi SSW 10.4 mph - N/A   Mostly Cloudy
10:54 PM 54.0 °F - 50.0 °F 86% 30.09 in 10.0 mi SW 11.5 mph - N/A   Mostly Cloudy
11:54 PM 55.0 °F - 48.0 °F 77% 30.05 in 10.0 mi SW 16.1 mph - N/A   Scattered Clouds